Cosmos 923 Rocket - Orbit

View from above orbital plane
View from above orbital plane
View from above satellite
View from above satellite

Ground track
Ground track

The orbit data is extracted from the following two-line orbital elements,

1 10121U 77059B   13140.54742046  .00000139  00000-0  57610-4 0  8270
2 10121 074.0489 340.6573 0019539 337.9620 051.9934 14.35261431876231
Epoch (UTC): 20 May 2013 13:08:17
Eccentricity: 0.0019539
inclination: 74.0489°
perigee height: 760 km
apogee height: 788 km
right ascension of ascending node: 340.6573°
argument of perigee: 337.9620°
revolutions per day: 14.35261431
mean anomaly at epoch: 51.9934°
orbit number at epoch: 87623

The dashed part of the orbit path shows where the satellite is in the earth's shadow,  

Developed and maintained by Chris Peat, Heavens-Above GmbH. Please read the updated FAQ before sending e-mail. Imprint. DLR